User: anonymous   Login
Location: Burera
(21.3780°N, 81.9534°E)
Time: 06:47:30
(UTC+00:00)
Language:

DELTA 4 R/B - Orbit

View from above orbital plane
View from above orbital plane
View from above satellite
View from above satellite

Ground track
Ground track

The orbit data is extracted from the following two-line orbital elements,

1 37378U 11011B   20295.40746644  .00023871  00000-0  60347-3 0  9999
2 37378  25.9654 275.0670 5055760 230.1967  73.1416  5.64392920 30098
Epoch (UTC): 21 October 2020 09:46:45
Eccentricity: 0.5055760
inclination: 25.9654°
perigee height: 210 km
apogee height: 13684 km
right ascension of ascending node: 275.0670°
argument of perigee: 230.1967°
revolutions per day: 5.64392920
mean anomaly at epoch: 73.1416°
orbit number at epoch: 3009

The dashed part of the orbit path shows where the satellite is in the earth's shadow,  

DLR